Location: Boitzum
(52.1496°N, 9.6943°E)
Time: 07:03:23
(UTC+00:00)

COSMO-SKYMED 1 - Pass Details

Date: 13 January 2026
Orbit: 577 x 579 km, 97.9° (Epoch: 18 February)

Event Time Altitude Azimuth Distance (km) Brightness Sun altitude
Rises 05:35:18 0° 195° (SSW) 2,790 5.9 -16.0°
Reaches altitude 10° 05:37:43 10° 208° (SSW) 1,896 4.9 -15.6°
Maximum altitude 05:41:12 26° 266° (W) 1,158 3.4 -15.1°
Enters shadow 05:41:30 26° 274° (W) 1,166 3.4 -15.1°
